Terug naar catalogus

ARIANE 1 DEB

ActiefSSO
NORAD 17423·DEBRIS·🇫🇷 France

Gelanceerd Feb 22, 1986 vanaf Guiana Space Centre

Loading…

Volgende Passages (komende 24 uur)

TLE

VersSource: Space-Track

Epoch: Sep 13, 2026, 00:08 UTC

1 17423U 86019FJ  26256.00606497 -.00000054  00000-0 -74537-5 0  9996
2 17423  98.7040 266.6317 0174725 144.0417 247.2304 14.02925452 27358

Volg ARIANE 1 DEB in realtime met AllMySat

Download on the App Store